User: anonymous   Login
Location: Nebula Knoll Observatory
(43.6666°N, 71.0000°W)
Time: 03:59:57
(UTC-04:00)
Language:

Cosmos 1782 - Orbit

View from above orbital plane
View from above orbital plane
View from above satellite
View from above satellite

Ground track
Ground track

The orbit data is extracted from the following two-line orbital elements,

1 16986U 86074A   16237.46035686  .00000130  00000-0  68865-5 0  9994
2 16986  82.5053  49.8083 0009324 273.7078  86.3083 15.06203024626183
Epoch (UTC): 24 August 2016 11:02:54
Eccentricity: 0.0009324
inclination: 82.5053°
perigee height: 541 km
apogee height: 554 km
right ascension of ascending node: 49.8083°
argument of perigee: 273.7078°
revolutions per day: 15.06203024
mean anomaly at epoch: 86.3083°
orbit number at epoch: 62618

The dashed part of the orbit path shows where the satellite is in the earth's shadow,  

DLR